Location: Mercogliano
(40.9167°N, 14.7333°E)
Time: 05:34:16
(UTC+00:00)

Cosmos 2150 Rocket - Pass Details

Date: 17 January 2021
Orbit: 748 x 808 km, 74.0° (Epoch: 06 March)

Event Time Altitude Azimuth Distance (km) Brightness Sun altitude
Rises 05:04:31 0° 353° (N) 3,254 7.0 -14.6°
Reaches altitude 10° 05:07:30 10° 10° (N) 2,334 6.5 -14.1°
Maximum altitude 05:11:25 21° 58° (ENE) 1,724 6.4 -13.3°
Drops below altitude 10° 05:15:23 10° 106° (ESE) 2,354 8.1 -12.6°
Sets 05:18:23 0° 122° (ESE) 3,289 9.0 -12.1°
